Location: Austin
(30.3000°N, 97.7500°W)
Time: 02:05:39
(UTC-06:00)

Yuri Rocket - Pass Details

Date: 20 November 2023
Orbit: 567 x 1908 km, 28.2° (Epoch: 04 December)

Event Time Altitude Azimuth Distance (km) Brightness Sun altitude
Rises 18:43:16 0° 270° (W) 2,761 8.0 -15.4°
Reaches altitude 10° 18:45:30 10° 267° (W) 1,851 6.8 -15.8°
Maximum altitude 18:49:34 60° 187° (S) 670 3.3 -16.7°
Enters shadow 18:51:58 25° 115° (ESE) 1,240 4.2 -17.2°
